Starlink 3610

operational
NORAD ID: 51812 Int'l Des: 2022-017 Owner: SPXS Country: US Constellation: starlink
LEOCIRCULAR

About Starlink 3610

Description loading...

Live Position

Loading 3D Globe...

Upcoming Passes

Altitude History

Altitude vs Time

uPlot chart will show altitude changes over time

Two-Line Element Set

1 51812U 22017AW 26102.61763977 .00000441 00000-0 45779-4 0 9991
2 51812 53.2166 176.8127 0001413 83.6335 276.4818 15.08839269229203
Epoch: Apr 12, 2026 • Age: 17 hours

Current Status

Altitude 557.6 km
Velocity 7.58 km/s
Sub-Earth Point -49.11°S, 93.9°E
Launch Date Feb 25, 2022
Age 4.1 years
Type internet

Technical Details

Classification Payload
Mass 297.00 kg
Dry Mass 275.00 kg
Total Mass 297.00 kg
Length 0.20 m
Diameter 2.80 m
Span 9.00 m
Shape Box + pan
Manufacturer SPXS
Bus Type Starlink
Phase Status In Orbit
Owner/State SPXS/US

Large Constellations

Loading constellations...